Broken Bow, NE

7:07 PM CST on November 22, 2017 (GMT -0600)
Broken Bow Municipal

Weather History for KBBW - July, 2013

Change the Weather History Date:

Sunday, July 14, 2013

  Actual Average Record
Temperature  
Mean Temperature 73 °F 74 °F  
Max Temperature 77 °F 87 °F 112 °F (1934)
Min Temperature 68 °F 62 °F 38 °F (1990)
Degree Days  
Heating Degree Days 0 0  
Month to date heating degree days 1 0  
Since 1 June heating degree days 42 46  
Cooling Degree Days 8 10  
Month to date cooling degree days 134 123  
Year to date cooling degree days 336 309  
Since 1 June cooling degree days 301 275  
Growing Degree Days 24 (Base 50)    
Moisture  
Dew Point 69 °F    
Average Humidity 87    
Maximum Humidity 97    
Minimum Humidity 76    
Precipitation  
Precipitation 0.03 in 0.10 in 1.34 in (1966)
Sea Level Pressure  
Sea Level Pressure 30.02 in    
Wind  
Wind Speed 11 mph (ESE)    
Max Wind Speed 23 mph    
Max Gust Speed 41 mph    
Visibility 8 miles    
Events Rain , Thunderstorm    
T = Trace of Precipitation, MM = Missing Value Source: NWS Daily Summary

Daily Weather History Graph

Daily Weather History Graph

Search for Another Location

Airport or City:

Trip Planner

Search our weather history database for the weather conditions in past years. The results will help you decide how hot, cold, wet, or windy it might be!

Date:

Astronomy

Jul. 14, 2013 Rise Set
Actual Time 6:17 AM CDT 9:11 PM CDT
Civil Twilight 5:44 AM CDT 9:43 PM CDT
Nautical Twilight 5:02 AM CDT 10:25 PM CDT
Astronomical Twilight 4:14 AM CDT 11:13 PM CDT
Moon 12:41 PM CDT (7/14) No Moon Set
Length of Visible Light 15h 59m
Length of Day
14h 53m
Waxing Crescent, 35% of the Moon is Illuminated
Jul 14
Waxing Crescent
Jul 15
First Quarter
Jul 22
Full
Jul 29
Last Quarter
Aug 6
New

Hourly Weather History & Observations

Time (CDT) Temp. Dew Point Humidity Pressure Visibility Wind Dir Wind Speed Gust Speed Precip Events Conditions
12:53 AM 77.0 °F 69.1 °F 76% 29.84 in 10.0 mi SE 9.2 mph - N/A   Clear
1:53 AM 75.9 °F 69.1 °F 79% 29.82 in 10.0 mi SSE 8.1 mph - N/A   Clear
2:53 AM 75.0 °F 68.0 °F 79% 29.83 in 10.0 mi SSE 5.8 mph - N/A   Clear
3:53 AM 73.0 °F 69.1 °F 87% 29.84 in 10.0 mi SSE 10.4 mph - N/A   Clear
4:53 AM 75.0 °F 69.1 °F 82% 29.84 in 10.0 mi SSE 20.7 mph 26.5 mph N/A   Clear
5:53 AM 73.9 °F 69.1 °F 85% 29.87 in 10.0 mi SSE 17.3 mph 25.3 mph N/A   Scattered Clouds
6:53 AM 73.0 °F 68.0 °F 84% 29.88 in 8.0 mi South 18.4 mph 24.2 mph N/A   Clear
7:53 AM 73.0 °F 68.0 °F 84% 29.91 in 8.0 mi South 13.8 mph - N/A   Partly Cloudy
8:53 AM 73.9 °F 68.0 °F 82% 29.93 in 8.0 mi South 6.9 mph - N/A Thunderstorm Clear
9:19 AM 75.2 °F 68.0 °F 78% 30.03 in 8.0 mi SE 9.2 mph - N/A Thunderstorm Mostly Cloudy
9:31 AM 73.4 °F 68.0 °F 83% 30.04 in 8.0 mi East 6.9 mph - N/A   Overcast
9:53 AM 75.0 °F 68.0 °F 79% 29.96 in 9.0 mi ESE 8.1 mph - N/A   Overcast
10:15 AM 75.2 °F 69.8 °F 83% 30.03 in 8.0 mi ESE 6.9 mph - N/A   Mostly Cloudy
10:50 AM 75.2 °F 69.8 °F 83% 30.04 in 8.0 mi SE 6.9 mph - N/A   Mostly Cloudy
10:53 AM 75.9 °F 68.0 °F 76% 29.97 in 8.0 mi SE 5.8 mph - N/A   Mostly Cloudy
11:00 AM 75.2 °F 69.8 °F 83% 30.05 in 8.0 mi ESE 8.1 mph - N/A Thunderstorm Thunderstorm
11:34 AM 73.4 °F 69.8 °F 88% 30.05 in 9.0 mi SE 12.7 mph - 0.00 in Thunderstorm Overcast
11:50 AM 71.6 °F 69.8 °F 94% 30.05 in 6.0 mi ESE 17.3 mph 24.2 mph 0.00 in Rain Light Rain
11:53 AM 72.0 °F 69.1 °F 91% 29.99 in 5.0 mi SE 16.1 mph 24.2 mph 0.00 in Rain Light Rain
12:53 PM 73.0 °F 71.1 °F 93% 30.00 in 8.0 mi ESE 10.4 mph 25.3 mph 0.02 in Rain Light Rain
1:05 PM 73.4 °F 71.6 °F 94% 30.08 in 7.0 mi East 15.0 mph 25.3 mph N/A   Overcast
1:44 PM 73.4 °F 69.8 °F 88% 30.08 in 9.0 mi ESE 11.5 mph 24.2 mph N/A   Overcast
1:53 PM 73.9 °F 69.1 °F 85% 30.01 in 9.0 mi ESE 17.3 mph 25.3 mph N/A   Overcast
2:31 PM 73.4 °F 69.8 °F 88% 30.08 in 10.0 mi ESE 13.8 mph 26.5 mph N/A   Scattered Clouds
2:53 PM 75.0 °F 69.1 °F 82% 30.01 in 10.0 mi ESE 18.4 mph 26.5 mph N/A   Partly Cloudy
3:53 PM 75.0 °F 69.1 °F 82% 30.01 in 10.0 mi SE 15.0 mph - N/A   Partly Cloudy
4:53 PM 75.0 °F 70.0 °F 84% 30.01 in 9.0 mi ESE 13.8 mph 19.6 mph N/A   Partly Cloudy
5:22 PM 75.2 °F 69.8 °F 83% 30.08 in 9.0 mi ESE 12.7 mph 23.0 mph N/A   Mostly Cloudy
5:53 PM 75.0 °F 70.0 °F 84% 30.03 in 7.0 mi ESE 10.4 mph 25.3 mph N/A   Overcast
6:53 PM 73.9 °F 69.1 °F 85% 30.04 in 6.0 mi ESE 12.7 mph - N/A   Haze
7:33 PM 71.6 °F 69.8 °F 94% 30.11 in 3.0 mi ESE 9.2 mph - 0.01 in Rain Light Rain
7:53 PM 72.0 °F 70.0 °F 93% 30.06 in 4.0 mi East 5.8 mph - 0.01 in   Overcast
8:09 PM 71.6 °F 69.8 °F 94% 30.13 in 4.0 mi East 5.8 mph - N/A   Overcast
8:53 PM 71.1 °F 70.0 °F 96% 30.07 in 4.0 mi East 3.5 mph - N/A   Overcast
9:15 PM 71.6 °F 69.8 °F 94% 30.14 in 5.0 mi East 3.5 mph - N/A   Overcast
9:38 PM 71.6 °F 69.8 °F 94% 30.14 in 5.0 mi East 4.6 mph - N/A   Overcast
9:53 PM 71.1 °F 70.0 °F 96% 30.09 in 5.0 mi East 4.6 mph - N/A   Overcast
10:09 PM 71.6 °F 69.8 °F 94% 30.16 in 5.0 mi ESE 4.6 mph - N/A   Overcast
10:35 PM 71.6 °F 69.8 °F 94% 30.17 in 8.0 mi ESE 5.8 mph - N/A   Overcast
10:53 PM 71.1 °F 68.0 °F 90% 30.11 in 8.0 mi SE 6.9 mph - N/A   Overcast
11:53 PM 70.0 °F 68.0 °F 93% 30.12 in 7.0 mi ESE 3.5 mph - N/A   Overcast